Back to catalog

STARLINK-32484

AliveCommunicationsVLEO
NORAD 62160·PAYLOAD·🇺🇸 United States

Launched Nov 30, 2024 from Cape Canaveral Space Force Station

Loading…

Next Passes (next 24 hours)

TLE

FreshSource: CelesTrak SupGP

Epoch: Sep 15, 2026, 03:05 UTC

1 62160C 24224X   26258.12895833  .00004193  00000+0  15191-3 0  2585
2 62160  43.0008 168.5336 0001386 279.6999 272.9795 15.27567214    15

Track STARLINK-32484 in real time with AllMySat

Download on the App Store